QPF
0.00 0.00 0.00 0.00 0.00 0.00 0.00 0.00 0.00 0.00 0.00 0.00 0.00 0.00 0.00 0.00 0.00 0.00 0.00 0.00 0.00 0.00 0.00 0.00 0.00 0.00 0.00 0.05 0.16 0.02 0.04 0.04 0.03
0.00 0.00 0.00 0.00 0.00 0.00 0.00 0.00 0.00 0.00 0.00 0.00 0.00 0.00 0.00 0.00 0.00 0.00 0.00 0.00 0.00 0.00 0.00 0.00 0.00 0.00 0.00 0.00 0.03 0.07 0.13 0.02 0.01
0.00 0.00 0.00 0.00 0.00 0.00 0.00 0.00 0.00 0.00 0.00 0.00 0.00 0.00 0.00 0.00 0.00 0.00 0.00 0.00 0.00 0.00 0.00 0.00 0.00 0.00 0.00 0.00 0.00 0.02 0.12 0.06 0.04
0.00 0.00 0.00 0.00 0.00 0.00 0.00 0.00 0.00 0.00 0.00 0.00 0.00 0.00 0.00 0.00 0.00 0.00 0.00 0.00 0.00 0.00 0.00 0.00 0.00 0.00 0.00 0.00 0.01 0.01 0.04 0.07 0.10
0.00 0.00 0.00 0.00 0.00 0.00 0.00 0.00 0.00 0.00 0.00 0.00 0.00 0.00 0.00 0.00 0.00 0.00 0.00 0.00 0.00 0.00 0.00 0.00 0.00 0.00 0.00 0.00 0.00 0.00 0.00 0.02 0.03
0.00 0.00 0.00 0.00 0.00 0.00 0.00 0.00 0.00 0.00 0.00 0.00 0.00 0.00 0.00 0.00 0.00 0.00 0.00 0.00 0.00 0.00 0.00 0.00 0.00 0.01 0.13 0.16 0.15 0.09 0.04 0.02 0.01
0.00 0.00 0.00 0.00 0.00 0.00 0.00 0.00 0.00 0.00 0.00 0.00 0.00 0.00 0.00 0.00 0.00 0.00 0.00 0.00 0.00 0.00 0.00 0.02 0.14 0.28 0.50 0.45 0.32 0.20 0.13 0.08 0.04
0.00 0.00 0.00 0.00 0.00 0.00 0.00 0.00 0.00 0.00 0.00 0.00 0.00 0.00 0.00 0.00 0.00 0.00 0.00 0.00 0.00 0.00 0.01 0.11 0.77 1.22 1.03 0.36 0.07 0.04 0.13 0.12 0.11
0.00 0.00 0.00 0.00 0.00 0.00 0.00 0.00 0.00 0.00 0.00 0.00 0.00 0.00 0.00 0.00 0.00 0.00 0.00 0.00 0.00 0.00 0.04 0.48 0.80 0.77 0.71 0.15 0.03 0.02 0.18 0.25 0.28
0.00 0.00 0.00 0.00 0.00 0.00 0.00 0.00 0.00 0.00 0.00 0.00 0.00 0.00 0.00 0.00 0.00 0.00 0.00 0.00 0.00 0.00 0.14 0.24 0.32 0.66 0.45 0.11 0.01 0.05 0.15 0.15 0.11
0.00 0.00 0.00 0.00 0.00 0.00 0.00 0.00 0.00 0.00 0.00 0.00 0.00 0.00 0.00 0.00 0.00 0.00 0.00 0.00 0.00 0.01 0.11 0.13 0.06 0.06 0.04 0.02 0.01 0.03 0.08 0.08 0.01
0.00 0.00 0.00 0.03 0.05 0.06 0.01 0.00 0.00 0.00 0.00 0.00 0.00 0.00 0.00 0.00 0.00 0.00 0.00 0.00 0.00 0.01 0.05 0.02 0.02 0.00 0.01 0.00 0.00 0.00 0.01 0.01 0.00
0.00 0.00 0.00 0.01 0.02 0.04 0.02 0.01 0.00 0.00 0.00 0.00 0.00 0.00 0.00 0.00 0.00 0.00 0.00 0.00 0.00 0.00 0.01 0.04 0.05 0.02 0.00 0.00 0.00 0.00 0.00 0.00 0.00
0.00 0.00 0.00 0.00 0.00 0.00 0.00 0.00 0.00 0.00 0.00 0.00 0.00 0.00 0.00 0.00 0.00 0.00 0.00 0.00 0.00 0.00 0.01 0.08 0.09 0.08 0.05 0.01 0.00 0.00 0.00 0.00 0.00
0.00 0.00 0.00 0.00 0.00 0.00 0.00 0.00 0.00 0.00 0.00 0.00 0.00 0.00 0.00 0.00 0.00 0.00 0.00 0.00 0.01 0.01 0.01 0.01 0.02 0.06 0.06 0.03 0.00 0.00 0.00 0.00 0.00
0.00 0.00 0.01 0.00 0.01 0.00 0.00 0.00 0.00 0.00 0.00 0.00 0.00 0.00 0.00 0.00 0.00 0.00 0.00 0.00 0.00 0.00 0.01 0.01 0.00 0.00 0.00 0.01 0.00 0.00 0.00 0.00 0.00
0.00 0.00 0.00 0.00 0.00 0.00 0.00 0.00 0.00 0.00 0.00 0.00 0.00 0.00 0.00 0.00 0.00 0.00 0.00 0.00 0.00 0.00 0.00 0.00 0.00 0.01 0.01 0.01 0.00 0.00 0.00 0.00 0.00
0.00 0.00 0.00 0.00 0.00 0.00 0.00 0.00 0.00 0.00 0.00 0.00 0.00 0.00 0.00 0.00 0.00 0.00 0.00 0.00 0.00 0.00 0.00 0.00 0.00 0.00 0.00 0.00 0.00 0.00 0.00 0.03 0.03
0.00 0.00 0.00 0.00 0.00 0.00 0.00 0.00 0.00 0.00 0.00 0.00 0.00 0.00 0.00 0.00 0.00 0.00 0.00 0.00 0.00 0.00 0.00 0.00 0.00 0.00 0.00 0.00 0.00 0.00 0.00 0.00 0.00
0.00 0.00 0.00 0.00 0.00 0.00 0.00 0.00 0.00 0.00 0.00 0.00 0.00 0.00 0.00 0.00 0.00 0.00 0.00 0.00 0.00 0.00 0.00 0.00 0.00 0.00 0.00 0.00 0.00 0.00 0.00 0.00 0.00
MSLP
1005.24 1005.00 1004.98 1005.62 1006.29 1007.03 1007.83 1008.74 1010.21 1010.60 1011.37 1012.17 1012.76 1013.27 1013.69 1014.05 1014.44 1014.67 1014.93 1015.15 1015.23 1015.17 1015.14 1015.10 1015.47 1015.82 1016.22 1016.53 1016.99 1016.97 1017.14 1017.62 1017.88
1005.15 1005.13 1005.33 1005.63 1006.27 1006.98 1007.75 1008.42 1009.62 1010.16 1011.00 1011.71 1012.05 1012.59 1013.14 1013.58 1014.02 1014.29 1014.06 1014.51 1014.81 1014.93 1015.10 1015.09 1015.45 1015.49 1015.87 1016.00 1016.20 1016.64 1016.88 1016.93 1016.91
1005.16 1005.24 1005.45 1005.64 1006.00 1006.70 1007.48 1008.26 1009.13 1009.78 1010.26 1011.13 1011.39 1011.85 1012.43 1012.93 1013.24 1013.75 1014.09 1014.37 1014.53 1014.51 1014.59 1015.13 1015.41 1015.78 1016.00 1016.20 1016.30 1016.32 1016.66 1016.74 1016.44
1005.70 1005.84 1005.70 1005.85 1006.07 1006.64 1007.34 1008.11 1008.61 1009.33 1009.84 1010.30 1010.78 1011.25 1011.58 1012.10 1012.29 1012.76 1013.48 1013.68 1014.01 1014.19 1014.56 1014.81 1015.33 1015.72 1016.02 1016.20 1016.32 1016.30 1016.26 1016.51 1016.59
1006.41 1006.54 1006.23 1006.35 1006.75 1007.13 1007.59 1008.04 1008.39 1008.92 1009.43 1009.65 1010.05 1010.44 1011.33 1011.53 1012.05 1012.31 1012.46 1013.12 1013.31 1013.81 1014.10 1014.62 1015.15 1015.57 1015.89 1016.13 1016.14 1016.05 1016.01 1015.94 1015.92
1007.03 1007.07 1007.06 1006.85 1007.21 1007.79 1008.01 1008.31 1008.46 1008.64 1009.23 1009.56 1009.52 1010.17 1010.66 1011.23 1011.51 1011.95 1012.18 1012.29 1012.82 1013.32 1014.06 1014.48 1014.90 1015.47 1016.17 1016.91 1016.33 1015.95 1015.73 1015.75 1015.62
1007.57 1007.86 1008.18 1008.07 1008.29 1008.73 1009.04 1009.04 1009.10 1009.24 1009.30 1009.31 1009.73 1009.69 1010.14 1010.58 1010.98 1011.28 1011.46 1011.79 1012.49 1013.16 1013.76 1014.37 1015.30 1016.83 1017.40 1017.30 1017.35 1015.94 1015.53 1015.41 1015.28
1008.54 1008.72 1009.23 1009.85 1009.88 1010.06 1010.13 1009.91 1009.79 1009.95 1009.75 1009.76 1009.76 1010.12 1010.18 1010.50 1010.89 1011.09 1011.38 1011.71 1012.34 1012.85 1013.56 1014.21 1014.64 1013.87 1013.59 1014.36 1015.37 1013.93 1014.27 1014.47 1014.62
1009.71 1010.17 1010.58 1010.99 1011.16 1011.16 1011.05 1011.06 1010.54 1010.55 1010.28 1010.02 1010.19 1010.40 1010.46 1010.67 1010.99 1011.21 1011.32 1011.79 1012.09 1012.57 1013.41 1013.50 1013.57 1013.15 1012.08 1011.28 1010.42 1012.20 1012.71 1013.39 1014.02
1010.76 1011.19 1011.54 1011.59 1011.84 1011.40 1011.38 1012.42 1011.32 1011.38 1011.28 1010.87 1010.68 1010.77 1010.81 1010.92 1011.06 1011.01 1011.01 1011.34 1011.63 1012.08 1012.86 1013.01 1013.16 1012.62 1011.99 1012.12 1011.99 1012.22 1012.42 1012.31 1012.87
1011.87 1012.28 1012.42 1012.30 1012.10 1011.64 1012.23 1012.74 1012.80 1012.78 1012.29 1012.23 1011.71 1011.35 1011.21 1011.15 1011.12 1010.94 1010.80 1010.91 1010.99 1011.55 1012.19 1012.63 1013.00 1012.86 1012.27 1012.01 1012.34 1013.17 1012.66 1012.35 1011.89
1012.89 1013.15 1013.36 1013.66 1013.64 1013.83 1014.53 1014.00 1014.06 1013.23 1012.85 1012.64 1012.53 1012.55 1012.24 1011.67 1011.22 1010.97 1010.69 1010.54 1010.52 1010.80 1011.78 1012.21 1012.30 1011.80 1012.07 1011.80 1012.46 1012.22 1011.62 1012.62 1012.25
1013.61 1013.90 1014.15 1014.19 1014.23 1014.25 1014.36 1014.56 1014.13 1013.75 1013.37 1012.99 1013.07 1013.13 1013.07 1012.56 1011.54 1011.11 1010.74 1010.39 1010.15 1010.36 1011.25 1011.55 1011.86 1011.52 1011.56 1011.91 1011.79 1011.48 1011.72 1012.30 1012.20
1014.65 1014.85 1015.07 1014.96 1014.99 1015.19 1015.41 1015.27 1014.78 1014.29 1014.08 1013.86 1013.88 1013.83 1013.33 1013.00 1012.40 1011.66 1010.93 1010.60 1010.15 1010.15 1010.97 1011.34 1011.41 1011.04 1010.87 1011.21 1011.16 1011.03 1011.35 1011.76 1011.69
1015.51 1015.76 1015.89 1016.05 1015.81 1015.76 1015.70 1015.88 1015.69 1015.25 1014.98 1015.11 1014.72 1014.25 1013.74 1013.32 1012.85 1011.95 1011.46 1011.20 1010.53 1010.26 1010.54 1010.65 1010.64 1010.70 1010.74 1010.93 1010.41 1010.46 1010.81 1010.94 1011.07
1016.37 1016.62 1016.72 1016.73 1016.51 1016.71 1016.56 1016.37 1016.43 1015.92 1015.92 1015.72 1015.26 1014.34 1013.86 1013.53 1013.09 1012.23 1011.69 1011.04 1010.72 1010.48 1010.02 1010.14 1009.94 1009.57 1009.27 1009.07 1009.16 1009.75 1010.07 1010.53 1010.76
1016.62 1017.10 1017.23 1017.25 1017.09 1017.09 1016.70 1016.76 1016.75 1016.39 1016.12 1016.04 1015.19 1014.18 1013.89 1013.56 1013.13 1012.65 1011.78 1011.05 1010.09 1010.10 1009.88 1010.26 1010.33 1010.20 1009.34 1008.88 1009.06 1009.05 1009.00 1009.43 1010.14
1017.41 1017.75 1017.74 1017.73 1017.63 1017.39 1017.43 1017.37 1016.73 1016.34 1016.52 1015.78 1014.81 1014.39 1013.99 1013.53 1012.94 1012.63 1011.97 1011.10 1010.52 1010.48 1010.45 1010.90 1010.93 1010.81 1010.76 1010.00 1009.75 1009.98 1010.30 1010.09 1009.81
1018.38 1018.30 1018.38 1018.27 1018.31 1018.21 1018.21 1017.74 1017.36 1017.23 1017.03 1016.38 1016.08 1015.32 1014.44 1013.90 1013.46 1012.77 1011.69 1011.13 1010.65 1010.44 1010.55 1010.75 1010.76 1010.88 1010.95 1010.48 1010.11 1010.05 1010.01 1009.88 1009.79
1019.35 1019.11 1018.99 1018.86 1018.92 1018.74 1018.51 1018.31 1018.32 1017.84 1017.44 1016.91 1016.75 1016.22 1015.11 1014.31 1013.31 1012.57 1011.87 1011.36 1010.86 1010.22 1009.76 1009.93 1010.08 1010.31 1010.30 1010.37 1010.07 1010.07 1010.09 1010.02 1010.16
Thickness
5879 5882 5886 5882 5879 5875 5871 5865 5853 5852 5844 5834 5831 5828 5824 5821 5817 5812 5807 5802 5800 5800 5800 5801 5797 5792 5788 5785 5780 5780 5779 5778 5778
5873 5878 5879 5878 5878 5873 5869 5864 5855 5853 5844 5837 5835 5831 5826 5822 5818 5814 5813 5807 5805 5802 5801 5801 5796 5794 5791 5789 5786 5781 5780 5781 5782
5868 5873 5874 5876 5877 5873 5869 5866 5859 5854 5851 5840 5839 5836 5830 5825 5821 5817 5812 5808 5805 5805 5804 5799 5795 5790 5788 5785 5783 5783 5780 5779 5783
5862 5862 5868 5870 5874 5873 5870 5866 5862 5855 5851 5847 5842 5839 5836 5829 5827 5823 5815 5812 5808 5805 5802 5800 5793 5788 5785 5783 5781 5781 5780 5777 5776
5857 5859 5866 5868 5866 5866 5864 5861 5860 5857 5854 5851 5847 5843 5835 5832 5828 5825 5822 5814 5813 5807 5805 5799 5791 5787 5784 5781 5779 5778 5776 5777 5778
5849 5853 5857 5863 5862 5857 5858 5857 5857 5857 5853 5849 5852 5844 5838 5831 5828 5824 5820 5818 5814 5809 5802 5797 5791 5783 5772 5765 5768 5770 5772 5772 5773
5845 5844 5844 5851 5851 5847 5847 5849 5851 5851 5851 5853 5847 5847 5841 5835 5829 5825 5823 5820 5813 5806 5802 5793 5783 5763 5756 5749 5743 5762 5767 5768 5770
5835 5835 5832 5829 5832 5833 5836 5840 5843 5844 5846 5846 5846 5839 5837 5831 5828 5826 5821 5817 5809 5805 5798 5790 5781 5771 5768 5772 5747 5768 5768 5768 5773
5821 5819 5818 5818 5819 5821 5821 5826 5833 5835 5838 5841 5840 5834 5831 5828 5823 5820 5818 5811 5808 5804 5794 5792 5791 5792 5794 5795 5795 5775 5769 5772 5771
5811 5809 5809 5811 5810 5816 5819 5811 5824 5824 5827 5834 5834 5830 5828 5825 5821 5818 5816 5810 5807 5801 5791 5792 5789 5790 5791 5781 5781 5778 5774 5778 5772
5801 5800 5800 5803 5808 5812 5805 5803 5806 5812 5817 5816 5821 5822 5821 5820 5817 5815 5813 5809 5808 5801 5796 5789 5781 5780 5784 5784 5775 5767 5768 5771 5775
5794 5794 5794 5790 5792 5791 5784 5792 5796 5805 5808 5809 5808 5805 5806 5810 5812 5810 5810 5808 5807 5804 5793 5789 5788 5790 5784 5782 5768 5767 5773 5763 5764
5787 5788 5787 5787 5788 5791 5789 5786 5795 5796 5798 5801 5798 5796 5794 5797 5805 5805 5804 5805 5806 5803 5793 5789 5786 5785 5784 5775 5773 5774 5766 5760 5762
5777 5777 5776 5780 5780 5777 5776 5779 5784 5785 5785 5785 5787 5786 5787 5787 5791 5794 5799 5798 5801 5801 5790 5784 5780 5783 5783 5779 5777 5778 5766 5760 5763
5763 5762 5763 5765 5766 5766 5768 5767 5768 5770 5771 5771 5774 5776 5776 5776 5779 5784 5787 5787 5790 5792 5788 5785 5783 5778 5775 5773 5780 5778 5770 5765 5764
5749 5749 5749 5752 5753 5751 5753 5754 5752 5754 5756 5759 5760 5766 5766 5766 5768 5774 5777 5781 5780 5781 5787 5783 5783 5784 5784 5783 5783 5778 5772 5765 5761
5741 5738 5738 5740 5739 5740 5741 5742 5741 5744 5747 5748 5751 5757 5756 5756 5758 5760 5767 5773 5782 5780 5780 5773 5771 5769 5775 5778 5777 5776 5777 5773 5765
5728 5726 5727 5728 5727 5729 5728 5728 5734 5736 5733 5739 5745 5746 5746 5748 5751 5751 5756 5763 5768 5767 5768 5763 5762 5760 5757 5762 5762 5761 5755 5758 5760
5712 5713 5713 5714 5713 5713 5711 5715 5717 5718 5719 5724 5723 5727 5733 5735 5736 5741 5751 5755 5757 5758 5755 5752 5749 5748 5747 5752 5754 5754 5752 5748 5749
5695 5698 5699 5699 5698 5698 5699 5701 5698 5704 5706 5708 5706 5707 5716 5722 5729 5734 5738 5742 5744 5745 5751 5746 5745 5740 5739 5737 5741 5739 5739 5737 5733